This demonstration page uses our WeatherBlox Daily Observations layout. Learn more.

Left ArrowRight Arrow

34.02893, -84.19858

Hourly Observations for May 10, 2015

Temp ( °F °C ) Dew Point ( °F °C ) Humidity (%) Winds ( mph kmh ) Pressure ( in mb ) Visibility ( mi km ) Precip ( " mm )
12:53 am 00:53 Clear 68 20 60 15.6 76 76 Calm 30.07 1018 8 13 0.00 0.00
1:53 am 01:53 Clear 69 20.6 60 15.6 73 73 Calm 30.07 1018 8 13 0.00 0.00
2:53 am 02:53 Clear 66 18.9 61 16.1 84 84 Calm 30.07 1018 8 13 0.00 0.00
3:53 am 03:53 Cloudy 69 20.6 62 16.7 78 78 Calm 30.06 1018 8 13 0.00 0.00
4:53 am 04:53 Mostly Clear 68 20 61 16.1 78 78 Calm 30.06 1018 8 13 0.00 0.00
5:53 am 05:53 Clear 66 18.9 60 15.6 81 81 Calm 30.06 1018 8 13 0.00 0.00
6:53 am 06:53 Sunny with Mist and Fog 65 18.3 61 16.1 87 87 Calm 30.09 1019 6 10 0.00 0.00
7:53 am 07:53 Hazy 69 20.6 62 16.7 78 78 Calm 30.11 1020 6 10 0.00 0.00
8:53 am 08:53 Sunny 73 22.8 63 17.2 71 71 E 5 7 30.11 1020 7 11 0.00 0.00
9:53 am 09:53 Sunny 76 24.4 63 17.2 64 64 SE 5 7 30.11 1020 8 13 0.00 0.00
10:53 am 10:53 Sunny 80 26.7 63 17.2 56 56 N 3 6 30.11 1020 8 13 0.00 0.00
11:53 am 11:53 Sunny 83 28.3 62 16.7 49 49 Calm 30.10 1019 8 13 0.00 0.00
12:53 pm 12:53 Sunny 84 28.9 63 17.2 49 49 VRB 3 6 30.09 1019 8 13 0.00 0.00
1:53 pm 13:53 Mostly Cloudy 85 29.4 62 16.7 46 46 SW 7 11 30.08 1019 8 13 0.00 0.00
2:53 pm 14:53 Sunny 87 30.6 62 16.7 43 43 W 5 7 30.06 1018 7 11 0.00 0.00
3:53 pm 15:53 Sunny 87 30.6 61 16.1 42 42 VRB 5 7 30.04 1017 7 11 0.00 0.00
4:53 pm 16:53 Sunny 88 31.1 61 16.1 40 40 VRB 3 6 30.03 1017 10 16 0.00 0.00
5:53 pm 17:53 Sunny 88 31.1 61 16.1 40 40 W 9 15 30.02 1017 7 11 0.00 0.00
6:53 pm 18:53 Sunny 83 28.3 62 16.7 49 49 W 6 9 30.04 1017 7 11 0.00 0.00
7:53 pm 19:53 Sunny 82 27.8 63 17.2 53 53 SW 6 9 30.03 1017 7 11 0.00 0.00
8:53 pm 20:53 Clear 77 25 64 17.8 64 64 Calm 30.03 1017 8 13 0.00 0.00
9:53 pm 21:53 Clear 75 23.9 64 17.8 69 69 Calm 30.05 1018 8 13 0.00 0.00
10:53 pm 22:53 Clear 73 22.8 65 18.3 76 76 Calm 30.06 1018 7 11 0.00 0.00
11:53 pm 23:53 Clear 72 22.2 65 18.3 79 79 Calm 30.06 1018 7 11 0.00 0.00

Powered by AerisWeather